Regional Weather Roundup
Issued by NWS

Home | Current Version | Previous Version | Graphics & Text | Print | Product List | Glossary On
Versions: 1 2 3 4 5 6 7 8 9 10 11 12 13 14 15 16 17 18 19 20 21 22 23 24 25 26 27 28 29 30 31 32 33 34 35 36 37 38 39 40 41 42 43 44 45 46 47 48 49 50
000
ASUS43 KLMK 231410
RWRKY
KENTUCKY REGIONAL WEATHER ROUNDUP
NATIONAL WEATHER SERVICE LOUISVILLE KY
1000 AM EDT SAT AUG 23 2014

NOTE "FAIR" INDICATES FEW OR NO CLOUDS BELOW 12,000 FEET
WITH NO SIGNIFICANT WEATHER AND/OR OBSTRUCTIONS TO VISIBILITY.

KYZ001>023-026-027-061>063-070>075-231500-
WESTERN AND SOUTH CENTRAL KENTUCKY

CITY           SKY/WX    TMP DP  RH WIND       PRES   REMARKS
PADUCAH        CLOUDY    83  76  79 SW5       29.99R HX  91
HENDERSON      MOSUNNY   82  73  74 SW8       29.96S
OWENSBORO      MOSUNNY   80  75  84 SW6       29.99R
HOPKINSVILLE   CLOUDY    78  78 100 VRB5      30.01S
BOWLING GREEN  SUNNY     80  70  71 S6        30.02S
GLASGOW        MOSUNNY   80  70  71 W3        30.02S
$$

KYZ024-025-028>034-038-045-046-053-231500-
NORTH CENTRAL KENTUCKY

CITY           SKY/WX    TMP DP  RH WIND       PRES   REMARKS
LOUISVILLE/SDF MOSUNNY   80  73  79 S3        30.00R
LOUISVILLE/LOU SUNNY     79  73  82 CALM      30.01R
FORT KNOX      SUNNY     77  73  85 SE1       30.00S
$$

KYZ035>037-039>044-047>052-055>060-089>105-231500-
NORTHEAST KENTUCKY

CITY           SKY/WX    TMP DP  RH WIND       PRES   REMARKS
LEXINGTON      MOSUNNY   80  73  79 W3        30.04R
COVINGTON      PTSUNNY   79  73  82 CALM      30.02S
FRANKFORT      MOSUNNY   79  71  76 N3        30.02R
$$

KYZ054-064>069-076>088-106>120-231500-
SOUTHEAST KENTUCKY

CITY           SKY/WX    TMP DP  RH WIND       PRES   REMARKS
JACKSON        FOG       73  70  90 CALM      30.05R VSB 1/4
LONDON         PTSUNNY   81  69  67 CALM      30.05S
SOMERSET       SUNNY     79  73  83 CALM      30.05S
MIDDLESBORO    MOSUNNY   80  73  78 CALM      30.04F
MONTICELLO     SUNNY     81  75  81 CALM      30.05S HAZE
$$




USA.gov is the U.S. government's official web portal to all federal, state and local government web resources and services.